Wind_Speed
50 47 44 43 42 42 42 41 39 37 34 32 29 27 24 23 22 20 19 18 17 17 19 20 22 25 27 29 30 30 31 32 33 34 35 37 39 41
57 53 50 48 46 45 45 44 43 41 38 36 33 30 27 26 24 22 22 21 21 20 21 21 22 24 26 28 29 30 30 31 32 33 33 35 37 39
64 62 56 52 50 49 48 47 46 44 42 39 36 33 31 28 26 25 24 23 23 22 23 23 23 23 25 26 27 28 28 29 30 31 31 33 35 37
69 68 64 59 56 53 52 51 49 47 45 42 39 36 33 30 28 26 25 24 24 24 25 25 24 24 24 25 26 26 26 27 27 28 29 30 31 33
71 71 71 67 61 57 55 54 52 50 48 45 42 39 36 32 30 27 26 25 25 25 25 25 24 24 25 26 26 25 24 23 22 24 25 25 26 27
71 73 74 73 68 63 58 56 55 53 51 49 46 42 38 35 32 29 26 25 25 25 25 24 24 24 25 27 27 26 25 23 21 20 20 21 21 21
68 71 74 76 73 69 63 57 56 55 53 51 49 45 41 38 34 31 28 26 25 25 24 24 24 24 26 27 27 26 25 23 22 20 20 20 20 20
65 67 70 74 76 73 68 63 58 57 56 53 50 47 44 40 37 33 30 27 25 25 24 24 24 24 25 27 27 26 26 25 24 23 22 22 22 21
59 61 64 69 72 75 73 69 63 58 59 57 53 49 46 43 39 35 32 29 27 25 24 24 23 24 25 27 27 27 26 26 25 23 23 22 21 21
50 52 56 59 66 71 74 72 68 62 56 56 54 52 49 46 42 38 34 31 28 25 24 24 23 23 23 25 26 26 25 25 24 23 22 21 21 21
43 44 47 50 56 64 69 71 68 65 61 54 51 52 51 48 43 39 35 32 28 26 24 24 23 22 22 23 23 23 23 22 22 21 21 21 20 20
40 39 40 43 47 53 59 65 68 68 64 58 52 49 49 47 44 40 37 33 29 26 24 23 22 21 20 20 21 21 21 20 20 20 20 20 20 19
38 36 35 36 39 43 48 54 61 65 63 60 53 48 47 46 43 40 37 34 30 27 26 24 22 20 19 19 20 21 21 21 21 21 21 21 22 21
35 34 32 31 32 35 39 45 52 59 62 60 57 51 46 43 42 41 39 35 31 29 27 26 24 22 21 21 20 21 22 23 23 23 23 23 23 24
34 31 29 28 28 29 32 38 45 51 55 56 54 50 46 44 43 42 40 36 33 31 29 28 26 25 23 22 21 21 22 22 23 25 25 25 25 25
32 30 28 27 27 27 28 31 38 45 50 53 52 49 47 45 44 42 40 38 35 33 31 29 27 25 24 22 22 22 22 23 24 25 26 26 25 24
31 30 29 28 27 26 27 28 33 40 47 51 51 50 47 46 44 42 41 38 37 34 32 30 29 27 25 24 23 23 23 23 24 25 25 24 24 22
29 28 28 29 29 27 27 28 30 37 46 51 51 50 48 46 45 43 41 39 38 36 34 32 30 28 25 23 22 21 21 21 22 22 22 22 22 22
27 27 28 29 30 29 28 28 30 36 44 50 51 51 49 46 45 43 41 40 39 37 35 33 30 28 26 24 22 20 20 19 20 20 20 20 21 21
26 27 28 29 30 30 29 28 31 37 45 49 50 50 48 46 44 43 41 40 39 38 36 33 31 28 26 24 21 20 20 20 20 20 21 21 22 22
24 26 27 29 29 29 29 30 33 39 46 48 49 49 47 46 44 42 41 40 39 38 36 34 32 29 26 24 22 21 20 20 21 21 22 22 23 24
22 24 26 27 28 29 30 31 36 44 48 47 47 47 46 44 42 41 40 39 38 36 35 34 32 29 26 25 24 23 22 22 23 23 24 24 25 26
20 22 24 26 27 28 30 33 39 45 47 47 47 46 45 43 42 41 40 38 37 35 34 32 31 29 28 27 26 25 24 24 24 25 26 27 27 28
Wind_Direction
246 244 242 239 237 235 234 232 232 231 230 230 231 233 235 239 243 248 255 261 269 277 281 278 270 261 255 251 250 248 247 247 248 247 245 245 246 245
245 244 242 240 238 236 234 232 232 232 231 229 229 230 233 236 241 247 254 260 266 273 279 279 273 264 256 253 251 250 249 248 248 249 248 247 248 247
243 242 241 240 237 236 234 232 231 232 232 231 229 230 232 235 240 246 253 259 264 270 275 278 275 266 258 253 252 251 250 249 251 250 251 250 248 247
242 242 241 240 238 236 234 231 230 230 231 232 231 231 232 234 238 244 252 259 264 267 272 275 275 267 258 253 251 249 250 251 254 253 254 255 251 250
241 241 241 241 239 237 234 230 228 228 229 231 232 232 233 234 237 242 250 257 262 265 269 273 274 266 258 252 248 248 249 250 252 253 252 255 255 251
240 239 239 240 240 239 235 230 227 226 227 229 231 232 233 234 237 241 247 254 260 262 266 271 272 266 258 251 248 248 246 245 249 253 253 253 256 253
239 238 237 238 239 239 236 231 226 225 224 226 228 230 232 233 235 239 245 251 257 260 263 269 270 265 258 251 248 248 245 244 247 251 256 259 259 257
239 238 237 236 237 238 237 233 227 223 223 224 225 227 229 231 233 236 241 247 253 258 261 266 270 264 257 250 246 246 245 245 247 251 255 258 257 256
238 238 237 235 234 235 235 235 231 225 222 222 222 224 226 228 229 233 237 243 249 255 259 265 267 263 256 249 246 245 245 246 247 251 254 256 256 254
235 236 236 235 233 232 232 233 232 229 224 220 221 222 223 225 226 229 234 240 246 252 257 262 264 260 255 249 246 245 245 245 246 248 250 252 252 251
227 229 231 232 233 231 231 231 231 231 230 224 219 219 221 222 223 225 229 235 241 247 252 258 259 257 253 248 245 243 243 243 244 245 246 248 249 246
217 220 224 228 230 231 230 229 230 232 231 229 226 221 218 218 220 222 226 232 238 243 247 252 253 252 249 245 242 240 239 239 241 244 243 245 244 245
209 211 216 221 225 227 228 227 227 228 229 230 230 228 222 218 219 222 224 228 233 238 241 245 245 244 246 247 245 244 241 239 241 244 242 244 244 246
204 208 210 214 219 223 224 224 224 225 228 230 231 230 225 220 220 222 224 225 230 233 236 238 239 241 246 247 249 247 243 241 241 243 244 245 245 245
202 206 208 212 215 219 221 222 221 220 222 224 227 226 225 221 219 220 222 223 226 229 233 235 238 241 245 247 249 248 244 243 242 242 245 247 246 245
205 207 209 209 213 218 220 219 218 215 214 216 219 220 221 220 218 218 220 221 224 227 230 234 238 240 242 247 249 248 246 244 243 244 244 242 240 237
207 209 210 211 213 216 218 218 216 211 207 207 209 213 215 216 215 216 219 221 223 226 230 234 237 239 242 246 248 248 245 242 240 239 237 234 231 227
208 209 211 213 212 214 216 217 215 209 201 200 202 206 210 211 213 215 218 220 221 224 228 232 236 238 241 244 244 243 240 235 231 229 226 223 220 216
206 208 209 210 211 213 214 215 213 206 198 194 196 199 203 207 210 214 217 219 220 222 226 230 234 236 239 241 238 235 230 226 221 216 212 210 210 212
205 207 208 209 211 212 212 213 209 201 193 190 191 194 198 202 206 210 214 217 220 222 225 229 231 234 236 235 232 227 221 216 212 209 208 209 212 218
203 206 208 209 210 212 213 212 205 195 188 185 186 190 195 199 203 208 212 215 219 221 223 226 229 231 230 228 224 220 216 212 212 213 215 219 224 230
200 203 206 209 212 213 211 209 202 191 183 182 183 188 193 197 202 206 209 213 217 220 221 224 227 227 226 223 221 219 218 218 219 222 226 231 236 242
198 203 207 209 211 210 208 205 198 188 180 179 182 187 191 196 201 204 208 211 214 217 219 222 224 224 224 224 223 222 222 224 226 230 235 240 246 253
Height
5736 5740 5745 5749 5754 5759 5764 5769 5774 5778 5783 5787 5791 5795 5798 5801 5804 5807 5808 5809 5810 5811 5812 5813 5813 5814 5815 5816 5817 5819 5821 5823 5825 5828 5830 5833 5835 5838
5721 5726 5731 5736 5741 5747 5753 5758 5764 5769 5774 5779 5784 5788 5792 5795 5798 5801 5803 5804 5805 5806 5807 5808 5808 5808 5809 5810 5811 5813 5814 5816 5818 5820 5822 5824 5827 5829
5705 5710 5715 5721 5727 5734 5740 5746 5753 5759 5764 5770 5775 5780 5784 5788 5791 5794 5796 5798 5799 5801 5802 5803 5803 5803 5803 5804 5805 5806 5808 5810 5811 5813 5815 5817 5819 5821
5688 5693 5699 5705 5712 5719 5726 5734 5741 5747 5753 5759 5765 5771 5776 5780 5784 5787 5790 5791 5793 5795 5796 5797 5797 5797 5797 5798 5799 5800 5802 5804 5805 5807 5809 5810 5812 5814
5669 5676 5682 5689 5697 5704 5712 5720 5728 5735 5742 5749 5755 5761 5767 5772 5777 5780 5783 5785 5786 5788 5790 5791 5791 5791 5792 5792 5793 5795 5797 5798 5800 5801 5803 5805 5806 5807
5649 5657 5665 5672 5681 5690 5698 5706 5714 5722 5731 5738 5745 5751 5758 5764 5769 5773 5776 5778 5780 5782 5784 5785 5785 5785 5785 5786 5788 5789 5791 5794 5795 5797 5798 5800 5801 5802
5629 5637 5646 5655 5664 5674 5684 5693 5701 5709 5718 5726 5734 5741 5749 5755 5761 5765 5768 5771 5773 5775 5777 5779 5779 5779 5779 5780 5782 5784 5786 5788 5791 5793 5794 5796 5797 5799
5611 5618 5627 5637 5647 5658 5669 5679 5688 5697 5705 5714 5723 5731 5739 5746 5752 5757 5761 5764 5767 5769 5771 5772 5773 5773 5773 5774 5776 5778 5781 5783 5785 5788 5790 5791 5793 5794
5594 5602 5610 5620 5630 5641 5653 5664 5674 5683 5693 5703 5711 5720 5729 5736 5743 5748 5753 5757 5760 5762 5764 5766 5767 5767 5767 5768 5770 5772 5775 5777 5780 5782 5784 5786 5787 5789
5580 5587 5596 5604 5613 5624 5637 5649 5660 5671 5680 5691 5701 5710 5717 5725 5732 5739 5744 5749 5752 5755 5758 5760 5761 5761 5762 5762 5764 5766 5769 5771 5774 5776 5779 5780 5782 5784
5568 5576 5583 5591 5598 5610 5623 5636 5647 5658 5668 5678 5688 5697 5706 5715 5723 5730 5736 5741 5745 5748 5751 5754 5755 5755 5755 5756 5758 5761 5763 5765 5768 5771 5773 5775 5777 5779
5559 5566 5573 5580 5587 5596 5607 5620 5633 5645 5657 5667 5677 5686 5696 5705 5713 5721 5728 5733 5737 5741 5745 5747 5749 5750 5750 5751 5753 5755 5758 5760 5763 5765 5768 5770 5773 5775
5550 5557 5564 5571 5578 5586 5596 5606 5619 5632 5644 5657 5667 5677 5687 5696 5705 5713 5720 5726 5730 5735 5738 5741 5743 5745 5746 5747 5748 5751 5753 5756 5758 5760 5763 5765 5768 5770
5544 5551 5558 5565 5572 5579 5587 5595 5606 5619 5632 5645 5658 5668 5678 5687 5696 5704 5711 5717 5723 5728 5732 5735 5738 5739 5741 5742 5744 5746 5748 5750 5753 5755 5757 5760 5762 5764
5539 5547 5554 5560 5566 5573 5580 5587 5596 5608 5621 5635 5648 5660 5669 5678 5687 5696 5703 5709 5715 5720 5725 5729 5732 5734 5736 5738 5739 5741 5742 5744 5747 5749 5751 5754 5756 5758
5535 5543 5550 5556 5562 5568 5574 5581 5589 5599 5610 5624 5637 5649 5659 5670 5679 5688 5696 5702 5708 5714 5718 5722 5725 5728 5731 5733 5734 5735 5737 5738 5741 5743 5745 5747 5750 5752
5531 5539 5545 5552 5557 5563 5570 5576 5583 5592 5602 5614 5626 5639 5651 5662 5671 5680 5688 5696 5702 5708 5712 5717 5720 5722 5725 5726 5728 5729 5731 5732 5735 5737 5739 5741 5744 5747
5527 5534 5541 5547 5553 5559 5565 5571 5578 5585 5594 5605 5617 5630 5643 5654 5664 5673 5681 5689 5696 5701 5706 5711 5714 5716 5719 5721 5722 5723 5725 5727 5729 5731 5734 5737 5740 5744
5524 5530 5537 5543 5549 5555 5560 5566 5572 5579 5588 5599 5610 5623 5635 5646 5657 5666 5675 5682 5689 5695 5700 5704 5708 5710 5713 5715 5717 5718 5720 5722 5724 5727 5730 5733 5737 5741
5521 5527 5533 5538 5544 5550 5555 5561 5567 5574 5584 5594 5605 5616 5629 5640 5651 5660 5669 5676 5683 5689 5694 5698 5702 5705 5708 5710 5712 5714 5716 5719 5721 5724 5727 5730 5734 5738
5518 5523 5529 5534 5539 5545 5550 5556 5562 5570 5579 5589 5600 5612 5624 5635 5645 5654 5663 5670 5677 5683 5688 5693 5696 5700 5703 5706 5708 5710 5713 5716 5719 5722 5725 5728 5731 5733
5516 5521 5525 5530 5535 5540 5545 5550 5557 5565 5574 5585 5597 5609 5620 5631 5640 5649 5657 5664 5671 5677 5682 5687 5691 5695 5698 5701 5704 5707 5710 5713 5716 5718 5721 5724 5726 5728
5515 5519 5523 5527 5530 5535 5540 5545 5552 5561 5571 5583 5595 5606 5617 5627 5636 5644 5652 5659 5665 5671 5677 5682 5686 5690 5694 5697 5700 5703 5706 5709 5711 5714 5717 5718 5720 5722